Regional Weather Roundup
Issued by NWS Newport/Morehead, NC

Current Version | Previous Version | Text Only | Print | Product List | Glossary Off
Versions: 1 2 3 4 5 6 7 8 9 10 11 12 13 14 15 16 17 18 19 20 21 22 23 24 25 26 27 28 29 30 31 32 33 34 35 36 37 38 39 40 41 42 43 44 45 46 47 48 49 50
499 ASUS42 KMHX 210413 RWRMHX WEATHER ROUNDUP FOR EASTERN NORTH CAROLINA NATIONAL WEATHER SERVICE NEWPORT/MOREHEAD CITY NC 1100 PM EST MON NOV 20 2017 NOTE: "FAIR" INDICATES FEW OR NO CLOUDS BELOW 12,000 FEET WITH NO SIGNIFICANT WEATHER AND/OR OBSTRUCTIONS TO VISIBILITY NCZ015>017-031-032-045>047-102-103-210500- NORTH COAST CITY SKY/WX TMP DP RH WIND PRES REMARKS EDENTON PTCLDY 39 36 87 CALM 30.28R ELIZABETH CITY CLOUDY 35 35 100 S6 30.27S KITTY HAWK CLOUDY 46 32 59 CALM 30.26S MANTEO CLOUDY 37 34 89 CALM 30.28S $$ NCZ045>047-081-094-103-104-210500- CENTRAL COAST CITY SKY/WX TMP DP RH WIND PRES REMARKS FRISCO CLEAR 38 36 92 NE3 30.28S $$ NCZ095-097-098-100-101-210500- SOUTHERN COAST CITY SKY/WX TMP DP RH WIND PRES REMARKS BEAUFORT CLEAR 39 37 92 CALM 30.28R CEDAR ISLAND NOT AVBL JACKSONVILLE CLOUDY 37 36 96 CALM 30.27 PINEY ISLAND NOT AVBL WILMINGTON CLEAR 39 36 89 CALM 30.27S $$ NCZ011>013-027>030-043-044-078>080-089-090>093-098-210500- COASTAL PLAIN CITY SKY/WX TMP DP RH WIND PRES REMARKS AHOSKIE CLOUDY 31 30 99 CALM 30.27R CLINTON CLEAR 36 34 93 CALM 30.28S ELIZABETHTOWN NOT AVBL GOLDSBORO CLOUDY 36 31 82 CALM 30.25S GREENVILLE N/A 36 34 93 CALM 30.28S HAVELOCK NOT AVBL KENANSVILLE CLEAR 30 28 93 CALM 30.28S FOG KINSTON CLOUDY 34 32 93 CALM 30.28S NEW BERN CLOUDY 35 34 96 CALM 30.29S RICHLANDS CLEAR 32 30 92 CALM 30.28S ROCKY MOUNT CLOUDY 34 33 96 CALM 30.26F WASHINGTON CLOUDY 37 34 90 CALM 30.28S WHITEVILLE CLOUDY 37 35 91 CALM 30.26S $$ AMZ130-135-150-152-154-156-158-170-250-252-270-ANZ085-086-088-633-658-670-210500- MARINE OBSERVATIONS STATION/POSITION TIME TEMP WIND PRES WAVE SWELL AIR SEA DIR/SP/G HT/PER HT/PER (UTC) (F) (DEG/KT/KT) (MB) (FT/S) (FT/S) CHESAPEAKE LIGHT NOT AVBL 64 E VA BEACH 0350 53 60 230/ 6/ 10 1025.1 2/ 6 2/ 6 DUCK 0348 49 60 180/ 6/ 8 1024.2 2 E DUCK 0400 61 N/A 2/ 5 OREGON INLET 0348 170/ 2/ 3 N/A 13E OREGON INLT 0348 62 N/A 3/ 6 3/ 6 HATTERAS CG 0348 50 58 50/ 2/ 2 1024.9 DIAMOND BUOY 0400 58 75 20/ 4/ 8 1025.3 CAPE LOOKOUT 0400 330/ 2/ 3 1025.3 BEAUFORT LAB 0348 48 59 360/ 2/ 2 1025.1 30 SE NEW RVR IN 0308 59 67 130/ 6/ 10 1024.9 30 SE NEW RVR IN 0400 67 N/A 2/10 27 SE WRIGHTSVLE 0308 59 68 160/ 6/ 10 1024.7 5 SE WRIGHTSVLE 0308 58 64 150/ 6/ 10 1024.5 225 S CAPE HAT 0350 69 77 100/ 14/ 17 1023.4 5/ 7 3/ 7 41 SE CHARLESTON 0350 66 73 80/ 8/ 12 1023.2 3/ 8 2/ 8 $$

USA.gov is the U.S. government's official web portal to all federal, state and local government web resources and services.